Regional Weather Roundup
Issued by NWS Charleston, SC

Current Version | Previous Version | Graphics & Text | Print | Product List | Glossary On
Versions: 1 2 3 4 5 6 7 8 9 10 11 12 13 14 15 16 17 18 19 20 21 22 23 24 25 26 27 28 29 30 31 32 33 34 35 36 37 38 39 40 41 42 43 44 45 46 47 48 49 50
000 ASUS42 KCHS 202210 RWRCHS REGIONAL WEATHER ROUNDUP NATIONAL WEATHER SERVICE CHARLESTON SC 600 PM EDT MON OCT 20 2014 NOTE: "FAIR" INDICATES FEW OR NO CLOUDS BELOW 12,000 FEET WITH NO SIGNIFICANT WEATHER AND/OR OBSTRUCTIONS TO VISIBILITY. NOT ALL STATIONS ARE QUALITY CONTROLLED BY THE NATIONAL WEATHER SERVICE. USE DATA WITH CAUTION...ESPECIALLY DEWPOINT OBSERVATIONS. SCZ027-030-031-034>040-042>050-202300- ...SOUTH CAROLINA... CITY SKY/WX TMP DP RH WIND PRES REMARKS N CHARLESTON MOCLDY 73 57 57 S6 29.99F WATERFRONT PRK N/A 75 N/A N/A S5 N/A FORT JOHNSON NOT AVBL JOHNS ISLAND CLEAR 73 61 64 S5 29.99F PINOPOLIS N/A 77 59 53 S2 29.90F MONCKS CORNER FAIR 73 63 68 S3 29.98F SUMMERVILLE MOCLDY 72 61 68 CALM 29.99F BEAUFORT MCAS MOCLDY 74 61 63 S5 29.99S BEAUFORT ARPT FAIR 72 63 73 CALM 29.98F HILTON HEAD IS CLEAR 73 63 68 CALM 30.00F GEORGETOWN NOT AVBL WALTERBORO MOCLDY 73 55 53 S3 29.99S ORANGEBURG CLEAR 73 52 47 SW6 29.99S BARNWELL FAIR 73 54 49 W3 29.99S AIKEN FAIR 72 52 49 SW3 30.02F MANNING FAIR 73 59 60 CALM 29.99S KINGSTREE NOT AVBL COLUMBIA PTCLDY 74 49 41 SW6 29.98S SUMTER CLEAR 72 54 52 SW8 29.98S FLORENCE CLEAR 73 53 49 SW9 29.98F MYRTLE BEACH PTCLDY 72 57 60 SE9 30.00F N MYRTLE BEACH CLEAR 71 58 63 S8 30.00F $$ GAZ063-065-086>088-099>101-113>116-118-119-134-136>141-150-202300- ...GEORGIA... CITY SKY/WX TMP DP RH WIND PRES REMARKS SAVANNAH ARPT MOCLDY 75 61 61 SE6 29.99S HUNTER AAF MOCLDY 74 62 67 SE7 29.97F FORT STEWART MOCLDY 75 63 67 SE6 29.96F STATESBORO NOT AVBL SYLVANIA CLEAR 79 63 56 CALM 29.99F CLAXTON FAIR 73 64 73 CALM 29.97F THOMSON CLEAR 73 57 56 CALM 30.03F AUGUSTA-BUSH CLEAR 75 48 38 S6 29.97F AUGUSTA-DANIEL CLEAR 75 45 34 VRB6 29.99F SWAINSBORO FAIR 77 59 53 MISG 29.99S VIDALIA MOCLDY 75 61 60 CALM 29.98F ALMA PTCLDY 77 61 57 SE7 29.96F WAYCROSS PTCLDY 81 66 60 CALM 29.96F JESUP MOCLDY 79 68 69 SE3 29.98S BRUNSWICK PTCLDY 77 61 57 SE5 29.98F SAINT SIMONS PTCLDY 73 62 68 SE6 29.98F $$ SCZ027-028-034-036>038-045-046-048>050-GAZ119-141-202300- ...LAKE AND SUPPLEMENTAL COASTAL OBSERVATIONS... STATION/POSITION TIME TEMP WIND PRES WAVE SWELL AIR SEA DIR/SP/G HT/PER HT/PER/DIR (UTC) (F) (DEG/KT/KT) (MB) (FT/S) (FT/S/D) UPR LAKE MARION NOT AVBL WINYAH BAY 2100 72 130/ 5 1016.0S LAKE MURRAY 2100 74 220/ 2/ 7 1014.9F ACE BASIN NERRS 2100 75 CALM 1016.0S FORT PULASKI 2200 74 130/ 4/ 5 1015.7F SAPELO ISLAND NOT AVBL $$ ANZ835-935-AMZ111-154-330-350-352-354-374-450-454-472-202300- ...C-MAN AND BUOY OBSERVATIONS... STATION/POSITION TIME TEMP WIND PRES WAVE SWELL AIR SEA DIR/SP/G HT/PER HT/PER/DIR (UTC) (F) (DEG/KT/KT) (MB) (FT/S) (FT/S/D) FOLLY BEACH CMAN 2100 73 150/ 7/ 8 1016.4F BUOY 41004 2200 75 80 180/ 6/ 8 1015.4F 3/ 9 2/ 9 BUOY 41008 2200 76 76 150/ 8/ 10 1015.2F 2/10 2/ 80/10 5E ST. MARYS GA 2200 77 N/A 3/11 2/100/11 FRYING PAN BUOY 2200 72 76 130/ 10/ 12 1016.7F 2/ 8 2/ 90/ 8 BUOY 41025 2200 72 170/ 16/ 19 1016.8F 4/ 8 3/ 70/ 8 CAPE LOOKOUT NC 2100 69 140/ 9/ 9 1016.7F BUOY 41002 2057 73 80 100/ 6/ 10 1018.2S 3/ 9 3/100/ 9 BUOY 41010 2200 79 80 110/ 8/ 10 1015.1R 4/ 9 3/ 70/ 9 BUOY 41012 NOT AVBL ST AUGUSTINE FL 2200 77 130/ 10/ 11 1015.5F CAPERS NEARSHORE 2100 75 200/ 6/ 8 N/A FRIPP NEARSHORE NOT AVBL $$

USA.gov is the U.S. government's official web portal to all federal, state and local government web resources and services.